Volver al catálogo

COSMOS 839 DEB

ActivoUNKNOWN
NORAD 18272·DEBRIS·🇷🇺 Russia

Lanzado Jul 8, 1976 desde Plesetsk Cosmodrome

Loading…

Próximos Pases (próximas 24 horas)

TLE

ActualizadoSource: Space-Track

Época: Sep 13, 2026, 08:54 UTC

1 18272U 76067BL  26256.37090574  .00000011  00000-0  21715-3 0  9993
2 18272  65.8538 156.4196 0690180 202.0360 278.9728 12.40673059775319

Sigue COSMOS 839 DEB en tiempo real con AllMySat

Download on the App Store